Marquette, MI

4:24 PM EST on January 26, 2015 (GMT -0500)
Munising | Change Station
CLOSE
Current Station
Airport
Location: Munising,
Elevation: 614 ft
Nearby Weather Stations

Elev 614 ft 46.41 °N, 86.65 °W | Updated 28 minutes ago

Overcast
Overcast
25 °F
Feels Like 16 °F
N
9
Wind Variable Wind from SSE
Gusts 16 mph

Today
High -- | Low -- °F
--% Chance of Precip.
Yesterday
High -- | Low -- °F
Precip. -- in
8:20 AM 5:44 PM
Waxing Crescent, 47% visible
Pressure 29.93 in
Visibility -9999.0 miles
Clouds
Windchill 16 °F
Dew Point 15 °F
Humidity 66%
Rainfall 0.00 in
Snow Depth Not available.
UV Not available.
Pollen .10 out of 12
Air Quality Not available.
Flu Activity Not available.
METAR KP53 262056Z AUTO 15008KT M04/M09 A2989 RMK AO1 SLP133 T10391094 53004

More Conditions Fewer Conditions

Pressure 29.93 in
Visibility -9999.0 miles
Clouds
Windchill 16 °F
Dew Point 15 °F
Humidity 66%
Rainfall 0.00 in
Snow Depth Not available.
UV Not available.
Pollen .10 out of 12
Air Quality Not available.
Flu Activity Not available.
METAR KP53 262056Z AUTO 15008KT M04/M09 A2989 RMK AO1 SLP133 T10391094 53004

More Conditions Fewer Conditions

10-Day Weather Forecast

Almanac

Astronomy

Jan. 26, 2015 Rise Set
Actual Time
Civil Twilight
Nautical Twilight
Astronomical Twilight
Moon
Length of Visible Light
Length of Day
Tomorrow will be .
, % of the Moon is Illuminated

Today's Extremes

State Highs State Lows

Community

WunderPhotos

Upload Photos

1,790,364 photos uploaded!

WunderBlogs® & News

Nearby

Air Quality

  Air Quality AQ Index Pollutant
Not available.

Snow Depth

Station Depth Elevation

Earthquake Activity

City Distance Mag. Time & Date
Minimum magnitude displayed is 2.5.

Coastal Water Temperatures

Place Temperature

Nearby Weather Stations